Location: Ciula Mare
(45.6000°N, 22.8167°E)
Time: 10:17:03
(UTC+00:00)

Nadezhda 2 Rocket - Pass Details

Date: 03 February 2023
Orbit: 947 x 1011 km, 83.0° (Epoch: 31 March)

Event Time Altitude Azimuth Distance (km) Brightness Sun altitude
Rises 16:43:27 0° 353° (N) 3,676 7.5 -11.8°
Reaches altitude 10° 16:46:01 10° 357° (N) 2,716 6.8 -12.3°
Maximum altitude 16:52:11 65° 79° (E) 1,045 4.4 -13.3°
Drops below altitude 10° 16:58:14 10° 161° (SSE) 2,667 6.7 -14.4°
Sets 17:00:43 0° 165° (SSE) 3,605 7.4 -14.8°
